When you browse on this site, cookies collect data to enhance your experience and personalize the content and advertising you see.
Visit our Privacy Policy to learn more. By continuing to use the site, you agree to this use of cookies and data.
  • Em Portugal
  • Lista de países
  • Para 7 dias
  • Temperatura da água
  • Mapa do tempo
  • Widgets de tempo
  • user-avatar
    Iniciar Sessão

    Previsão horária em Dzhinyh

    Hoje, 22 Agosto, Quinta-feira

    Tempo Temperatura Precipitação Vento Pressão Humidade
    00:00 +15°C° 0 mm 1 m/s 611 mmHg 60%
    01:00 +15°C° 0 mm 1 m/s 611 mmHg 61%
    02:00 +14°C° 0 mm 1 m/s 611 mmHg 63%
    03:00 +14°C° 0 mm 1 m/s 611 mmHg 66%
    04:00 +15°C° 0 mm 1 m/s 611 mmHg 65%
    05:00 +15°C° 0 mm 1 m/s 611 mmHg 64%
    06:00 +16°C° 0 mm 1 m/s 612 mmHg 63%
    07:00 +19°C° 0 mm 1 m/s 612 mmHg 55%
    08:00 +21°C° 0 mm 1 m/s 613 mmHg 47%
    09:00 +24°C° 0 mm 2 m/s 614 mmHg 39%
    10:00 +24°C° 0 mm 2 m/s 614 mmHg 39%
    11:00 +25°C° 0 mm 2 m/s 614 mmHg 39%
    12:00 +26°C° 0 mm 3 m/s 614 mmHg 38%
    13:00 +26°C° 0.1 mm 3 m/s 614 mmHg 38%
    14:00 +26°C° 0.1 mm 2 m/s 614 mmHg 38%
    15:00 +26°C° 0.1 mm 2 m/s 614 mmHg 38%
    16:00 +25°C° 0.1 mm 2 m/s 613 mmHg 43%
    17:00 +23°C° 0.1 mm 1 m/s 613 mmHg 49%
    18:00 +22°C° 0.1 mm 1 m/s 612 mmHg 54%
    19:00 +20°C° 0 mm 1 m/s 612 mmHg 56%
    20:00 +19°C° 0 mm 1 m/s 611 mmHg 58%
    21:00 +16°C° 0 mm 1 m/s 611 mmHg 60%
    22:00 +16°C° 0 mm 1 m/s 611 mmHg 61%
    23:00 +15°C° 0 mm 1 m/s 611 mmHg 63%

    Amanhã, 23 Agosto, Sexta-feira

    Tempo Temperatura Precipitação Vento Pressão Humidade
    00:00 +15°C° 0 mm 1 m/s 610 mmHg 64%
    01:00 +15°C° 0 mm 1 m/s 611 mmHg 65%
    02:00 +14°C° 0 mm 1 m/s 611 mmHg 65%
    03:00 +14°C° 0 mm 1 m/s 611 mmHg 65%
    04:00 +15°C° 0 mm 1 m/s 611 mmHg 64%
    05:00 +15°C° 0 mm 1 m/s 611 mmHg 62%
    06:00 +16°C° 0 mm 1 m/s 611 mmHg 61%
    07:00 +19°C° 0 mm 1 m/s 612 mmHg 53%
    08:00 +21°C° 0 mm 1 m/s 613 mmHg 45%
    09:00 +23°C° 0 mm 2 m/s 614 mmHg 38%
    10:00 +24°C° 0 mm 2 m/s 614 mmHg 36%
    11:00 +25°C° 0 mm 3 m/s 614 mmHg 35%
    12:00 +26°C° 0 mm 3 m/s 615 mmHg 34%
    13:00 +26°C° 0 mm 3 m/s 614 mmHg 34%
    14:00 +26°C° 0 mm 3 m/s 614 mmHg 34%
    15:00 +26°C° 0 mm 3 m/s 614 mmHg 34%
    16:00 +25°C° 0 mm 2 m/s 614 mmHg 39%
    17:00 +24°C° 0 mm 2 m/s 613 mmHg 44%
    18:00 +22°C° 0 mm 1 m/s 612 mmHg 49%
    19:00 +21°C° 0 mm 1 m/s 612 mmHg 51%
    20:00 +19°C° 0 mm 1 m/s 612 mmHg 52%
    21:00 +16°C° 0 mm 1 m/s 611 mmHg 53%
    22:00 +16°C° 0 mm 1 m/s 611 mmHg 55%
    23:00 +15°C° 0 mm 1 m/s 611 mmHg 57%

    Depois de amanhã, 24 Agosto, Sábado

    Tempo Temperatura Precipitação Vento Pressão Humidade
    00:00 +15°C° 0 mm 1 m/s 611 mmHg 59%
    01:00 +15°C° 0 mm 1 m/s 611 mmHg 58%
    02:00 +15°C° 0 mm 1 m/s 611 mmHg 57%
    03:00 +15°C° 0 mm 1 m/s 611 mmHg 57%
    04:00 +15°C° 0 mm 1 m/s 611 mmHg 55%
    05:00 +15°C° 0 mm 1 m/s 611 mmHg 53%
    06:00 +16°C° 0 mm 1 m/s 611 mmHg 51%
    07:00 +19°C° 0 mm 1 m/s 613 mmHg 43%
    08:00 +22°C° 0 mm 1 m/s 614 mmHg 35%
    09:00 +24°C° 0 mm 2 m/s 615 mmHg 27%
    10:00 +25°C° 0 mm 2 m/s 615 mmHg 27%
    11:00 +26°C° 0 mm 2 m/s 615 mmHg 28%
    12:00 +26°C° 0 mm 3 m/s 615 mmHg 29%
    13:00 +26°C° 0 mm 3 m/s 615 mmHg 29%
    14:00 +26°C° 0 mm 3 m/s 615 mmHg 30%
    15:00 +26°C° 0 mm 4 m/s 614 mmHg 30%
    16:00 +25°C° 0 mm 3 m/s 614 mmHg 36%
    17:00 +23°C° 0 mm 2 m/s 613 mmHg 42%
    18:00 +22°C° 0 mm 1 m/s 613 mmHg 48%
    19:00 +21°C° 0 mm 1 m/s 613 mmHg 49%
    20:00 +19°C° 0 mm 1 m/s 613 mmHg 50%
    21:00 +18°C° 0 mm 1 m/s 613 mmHg 51%
    22:00 +18°C° 0 mm 1 m/s 613 mmHg 50%
    23:00 +18°C° 0 mm 1 m/s 613 mmHg 49%

    25 Agosto, Domingo

    Tempo Temperatura Precipitação Vento Pressão Humidade
    00:00 +18°C° 0 mm 1 m/s 613 mmHg 49%
    01:00 +17°C° 0.1 mm 2 m/s 613 mmHg 52%
    02:00 +16°C° 0.1 mm 2 m/s 612 mmHg 55%
    03:00 +16°C° 0.1 mm 3 m/s 612 mmHg 58%
    04:00 +16°C° 0 mm 2 m/s 612 mmHg 58%
    05:00 +16°C° 0 mm 2 m/s 613 mmHg 57%
    06:00 +18°C° 0 mm 1 m/s 613 mmHg 57%
    07:00 +19°C° 0 mm 1 m/s 613 mmHg 51%
    08:00 +20°C° 0 mm 2 m/s 614 mmHg 44%
    09:00 +23°C° 0 mm 2 m/s 615 mmHg 37%
    10:00 +23°C° 0 mm 2 m/s 615 mmHg 37%
    11:00 +24°C° 0 mm 3 m/s 615 mmHg 37%
    12:00 +24°C° 0 mm 3 m/s 615 mmHg 36%
    13:00 +25°C° 0 mm 3 m/s 614 mmHg 36%
    14:00 +25°C° 0 mm 3 m/s 614 mmHg 36%
    15:00 +25°C° 0 mm 3 m/s 614 mmHg 36%
    16:00 +24°C° 0 mm 2 m/s 614 mmHg 40%
    17:00 +21°C° 0 mm 2 m/s 613 mmHg 44%
    18:00 +21°C° 0 mm 1 m/s 613 mmHg 49%
    19:00 +19°C° 0 mm 1 m/s 612 mmHg 51%
    20:00 +18°C° 0 mm 1 m/s 612 mmHg 52%
    21:00 +15°C° 0 mm 1 m/s 611 mmHg 54%
    22:00 +14°C° 0 mm 1 m/s 611 mmHg 55%
    23:00 +14°C° 0 mm 1 m/s 611 mmHg 56%

    26 Agosto, Segunda-feira

    Tempo Temperatura Precipitação Vento Pressão Humidade
    00:00 +14°C° 0 mm 1 m/s 611 mmHg 57%
    01:00 +14°C° 0 mm 1 m/s 611 mmHg 57%
    02:00 +14°C° 0 mm 1 m/s 611 mmHg 58%
    03:00 +13°C° 0 mm 1 m/s 611 mmHg 58%
    04:00 +14°C° 0 mm 1 m/s 611 mmHg 59%
    05:00 +14°C° 0 mm 1 m/s 611 mmHg 59%
    06:00 +15°C° 0 mm 1 m/s 612 mmHg 59%
    07:00 +18°C° 0 mm 1 m/s 612 mmHg 54%
    08:00 +20°C° 0 mm 1 m/s 613 mmHg 48%
    09:00 +21°C° 0 mm 2 m/s 614 mmHg 43%
    10:00 +23°C° 0.1 mm 2 m/s 615 mmHg 42%
    11:00 +23°C° 0.1 mm 2 m/s 615 mmHg 41%
    12:00 +24°C° 0.1 mm 3 m/s 615 mmHg 41%
    13:00 +24°C° 0.2 mm 2 m/s 615 mmHg 42%
    14:00 +23°C° 0.2 mm 2 m/s 614 mmHg 43%
    15:00 +23°C° 0.2 mm 2 m/s 614 mmHg 44%
    16:00 +21°C° 0.2 mm 2 m/s 614 mmHg 51%
    17:00 +21°C° 0.2 mm 1 m/s 614 mmHg 57%
    18:00 +20°C° 0.2 mm 1 m/s 613 mmHg 63%
    19:00 +19°C° 0.3 mm 1 m/s 614 mmHg 65%
    20:00 +18°C° 0.3 mm 1 m/s 614 mmHg 66%
    21:00 +16°C° 0.3 mm 1 m/s 614 mmHg 67%
    22:00 +16°C° 0.1 mm 1 m/s 614 mmHg 68%
    23:00 +16°C° 0.1 mm 1 m/s 614 mmHg 69%

    27 Agosto, Terça-feira

    Tempo Temperatura Precipitação Vento Pressão Humidade
    00:00 +16°C° 0.1 mm 1 m/s 614 mmHg 70%
    01:00 +15°C° 0 mm 1 m/s 614 mmHg 72%
    02:00 +14°C° 0 mm 1 m/s 613 mmHg 75%
    03:00 +13°C° 0 mm 1 m/s 613 mmHg 77%
    04:00 +13°C° 0 mm 1 m/s 613 mmHg 77%
    05:00 +14°C° 0 mm 1 m/s 614 mmHg 76%
    06:00 +14°C° 0 mm 1 m/s 614 mmHg 76%
    07:00 +16°C° 0 mm 1 m/s 615 mmHg 69%
    08:00 +17°C° 0 mm 2 m/s 615 mmHg 62%
    09:00 +19°C° 0 mm 2 m/s 616 mmHg 55%
    10:00 +19°C° 0.1 mm 2 m/s 616 mmHg 54%
    11:00 +20°C° 0.1 mm 3 m/s 616 mmHg 53%
    12:00 +21°C° 0.1 mm 3 m/s 616 mmHg 52%
    13:00 +21°C° 0.1 mm 3 m/s 616 mmHg 52%
    14:00 +20°C° 0.1 mm 3 m/s 616 mmHg 52%
    15:00 +20°C° 0.1 mm 3 m/s 615 mmHg 53%
    16:00 +20°C° 0 mm 2 m/s 615 mmHg 55%
    17:00 +19°C° 0 mm 2 m/s 615 mmHg 57%
    18:00 +18°C° 0 mm 2 m/s 615 mmHg 60%
    19:00 +16°C° 0 mm 1 m/s 614 mmHg 63%
    20:00 +15°C° 0 mm 1 m/s 614 mmHg 67%
    21:00 +13°C° 0 mm 1 m/s 613 mmHg 70%
    22:00 +13°C° 0 mm 1 m/s 613 mmHg 70%
    23:00 +12°C° 0 mm 0 m/s 613 mmHg 70%
    Mostrar mais